Regional Weather Roundup
Issued by NWS

Home | Current Version | Previous Version | Graphics & Text | Print | Product List | Glossary On
Versions: 1 2 3 4 5 6 7 8 9 10 11 12 13 14 15 16 17 18 19 20 21 22 23 24 25 26 27 28 29 30 31 32 33 34 35 36 37 38 39 40 41 42 43 44 45 46 47 48 49 50
000
ASUS43 KBIS 300501
RWRND

NORTH DAKOTA REGIONAL WEATHER ROUNDUP
NATIONAL WEATHER SERVICE BISMARCK ND
1100 PM CST THU JAN 29 2015

NOTE: "FAIR" INDICATES FEW OR NO CLOUDS BELOW 12,000 FEET WITH NO
SIGNIFICANT WEATHER AND/OR OBSTRUCTIONS TO VISIBILITY.


NDZ001>003-009>011-017-300600-
NORTHWEST NORTH DAKOTA

CITY           SKY/WX    TMP DP  RH WIND       PRES   REMARKS
WILLISTON      CLEAR     26  19  74 SE3       30.28F
MINOT          CLOUDY    17  13  84 SE10      30.37F WCI   5
MINOT AFB      CLOUDY    15  15  98 SE9       30.37F WCI   3
$$

NDZ018>021-031>035-040>046-300600-
SOUTHWEST NORTH DAKOTA

CITY           SKY/WX    TMP DP  RH WIND       PRES   REMARKS
BISMARCK       CLEAR     17  14  88 SE5       30.43F WCI  10
DICKINSON      CLEAR     21  17  84 S10       30.28F WCI  10
GARRISON         N/A     17  15  92 SE7       30.37F WCI   8
HETTINGER ARPT CLEAR     24  15  68 SE7       30.33F WCI  16
$$

NDZ004>008-012>016-024-026-027-054-300600-
NORTHEAST NORTH DAKOTA

CITY           SKY/WX    TMP DP  RH WIND       PRES   REMARKS
GRAND FORKS    MOCLDY     6  -1  73 CALM      30.58F
GRND FRKS AFB  MOCLDY     5  -1  77 E1        30.57F
DEVILS LAKE    CLOUDY    10   7  85 SE9       30.46F WCI  -2
$$

NDZ022-023-025-028>030-036>039-047>053-300600-
SOUTHEAST NORTH DAKOTA

CITY           SKY/WX    TMP DP  RH WIND       PRES   REMARKS
FARGO          PTCLDY     8   0  69 NE6       30.58F WCI  -2
JAMESTOWN      CLOUDY    17  11  77 SE3       30.48F
$$



USA.gov is the U.S. government's official web portal to all federal, state and local government web resources and services.